星链-34059 (STARLINK-34059)

导读 | 豆包AI

STARLINK-34059是美国SpaceX星链星座的一员,于2025年5月10日发射。星链项目旨在构建全球卫星互联网星座,为全球偏远及网络欠发达地区提供高速宽带服务,该卫星入轨后将助力星链网络扩容,进一步完善星座覆盖能力,强化全球互联服务的稳定性与覆盖范围。

基本信息
目录编号:
63872
目录名称:
STARLINK-34059
国际标识:
2025-094J
轨道中心:
EARTH
卫星名称:
星链-34059
卫星全名:
星链-34059 (STARLINK-34059)
卫星状态:
在轨 (已飞行354 天)
发射日期:
2025-05-10 UTC
国别 :
美国 (US)
星等 :
--
轨道信息
数据来源 国际轨道数据 AOE轨道数据
星历时间 2026-04-29T14:06:50+0800
11小时前
查看轨道信息
2026-04-27T05:00:00+0800
2天前
查看轨道信息
半长轴 6950.163km 6950.081km
偏心率 0.0003622 0.0003784
轨道倾角 70.001° 69.999°
近地点辐角 270.424° 274.561°
升交点赤经 107.118° 113.116°
平近点角 89.650° 212.869°
近地点 569.508km 569.314km
远地点 574.544km 574.574km
周期 96.106分钟 96.105分钟
每日圈数 14.983397 14.983665
详细信息
固有亮度:
5
最大亮度:
2.5
卫星平台:
Starlink V1.0
覆盖范围:
全球
运营商:
太空探索技术公司
运营商所在国:
美国
制造商(研发单位):
太空探索技术公司
制造商所在国:
美国
使用方式:
暂无
卫星简介
Starlink 计划是 SpaceX 推出的全球卫星互联网项目,通过发射低轨道卫星,为全球尤其是偏远地区提供高速、低延迟的互联网服务。自 2019 年起,Starlink 已部署数千颗卫星,旨在缩小全球数字鸿沟,推动互联网普及。该项目还为军事、航空等行业提供通信支持,带来广泛经济效益。
2D轨道图
3D轨道图
轨道高度分析图
轨道倾角分析图
轨道综合分析图
查看轨道综合分析图